Location: Caicarita
(10.0502°N, 67.6875°W)
Time: 10:42:05
(UTC+00:00)

ARIANE 6 FM1 Upper Stage - Pass Details

Date: 05 August 2024
Orbit: 566 x 594 km, 62.0° (Epoch: 17 September)

Event Time Altitude Azimuth Distance (km) Brightness Sun altitude
Rises 23:27:08 0° 338° (NNW) 2,823 6.9 -9.0°
Reaches altitude 10° 23:29:24 10° 340° (NNW) 1,919 6.0 -9.5°
Maximum altitude 23:33:44 71° 65° (ENE) 624 2.7 -10.5°
Drops below altitude 10° 23:38:01 10° 149° (SSE) 1,905 4.9 -11.5°
Enters shadow 23:38:11 - 149° (SSE) 1,967 5.0 -11.5°
